Regional Weather Roundup
Issued by NWS

Home | Current Version | Previous Version | Text Only | Print | Product List | Glossary Off
Versions: 1 2 3 4 5 6 7 8 9 10 11 12 13 14 15 16 17 18 19 20 21 22 23 24 25 26 27 28 29 30 31 32 33 34 35 36 37 38 39 40 41 42 43 44 45 46 47 48 49 50

000
ASUS45 KBOI 212210
RWRID
WEATHER ROUNDUP FOR IDAHO
NATIONAL WEATHER SERVICE BOISE ID
400 PM MDT SUN SEP 21 2014

NOTE: "FAIR" INDICATES FEW OR NO CLOUDS BELOW 12000 FEET
WITH NO SIGNIFICANT WEATHER AND/OR OBSTRUCTIONS TO VISIBILITY

IDZ012-014-212300-
SOUTHWEST IDAHO


CITY           SKY/WX    TMP DP  RH WIND       PRES   REMARKS
BOISE          CLOUDY    80  45  28 SE13      30.00F
CALDWELL       CLOUDY    79  46  31 S10       30.00F
MOUNTAIN HOME  LGT RAIN  76  49  38 SE17      30.01S
$$

IDZ016-017-212300-
SOUTHCENTRAL IDAHO


CITY           SKY/WX    TMP DP  RH WIND       PRES   REMARKS
BURLEY         CLOUDY    66  55  67 SW9       30.11R
JEROME         LGT RAIN  64  56  75 E6        30.12R
TWIN FALLS     LGT RAIN  64  56  75 E6        30.12R
$$

IDZ019>023-212300-
SOUTHEAST IDAHO


CITY           SKY/WX    TMP DP  RH WIND       PRES   REMARKS
IDAHO FALLS    CLOUDY    77  44  30 SW15      30.13S
POCATELLO      MOSUNNY   74  47  38 S24G30    30.13R
REXBURG        CLOUDY    78  43  28 W8        30.13S
$$

IDZ006-010-011-018-031-032-212300-
CENTRAL IDAHO MOUNTAINS


CITY           SKY/WX    TMP DP  RH WIND       PRES   REMARKS
MCCALL         CLOUDY    78  41  26 NW7       30.08F
HAILEY         PTSUNNY   73  45  35 SE5       30.16F
STANLEY          N/A     69  36  29 E9        30.19S
SALMON         PTSUNNY   79  43  27 CALM      30.01F
CHALLIS        CLOUDY    78  38  23 CALM      30.08F
$$

IDZ002-004-006-007-026-212300-
NORTHERN IDAHO


CITY           SKY/WX    TMP DP  RH WIND       PRES   REMARKS
LEWISTON       SUNNY     88  41  19 W3        29.87F
LOWELL           N/A     83  54  36 CALM      29.85F
COEUR D`ALENE  SUNNY     88  45  22 NE6       29.92F
MULLAN PASS    SUNNY     73  38  27 VRB3      30.16F
$$


USA.gov is the U.S. government's official web portal to all federal, state and local government web resources and services.